Terminal Aerodrome Forecast
Issued by NWS

Home | Current Version | Previous Version | Text Only | Print | Product List | Glossary Off
Versions: 1 2 3 4 5 6 7 8 9 10 11 12 13 14 15 16 17 18 19 20 21 22 23 24 25 26 27 28 29 30

870
FTUS43 KLOT 200858 AAA
TAFDPA
TAF AMD
KDPA 200858Z 2009/2106 15006KT 5SM BR BKN250
     FM201000 15007KT 3SM BR SCT005 BKN250
      TEMPO 2011/2015 1/2SM FG BKN004
     FM201600 15011KT 5SM BR FEW006 BKN015 OVC200
     FM201800 15013G21KT P6SM SCT035 OVC200
     FM210100 16014G24KT P6SM OVC150
     FM210400 19013G23KT P6SM OVC035 WS015/19045KT=

USA.gov is the U.S. government's official web portal to all federal, state and local government web resources and services.